Time,TemperatureF,DewpointF,PressureIn,WindDirection,WindDirectionDegrees,WindSpeedMPH,WindSpeedGustMPH,Humidity,HourlyPrecipIn,Conditions,Clouds,dailyrainin,SoftwareType,DateUTC
2013-05-08 00:01:00,36.0,9.0,-100.00,NNW,340,2.0,4.0,32,0.00,,,0.00,,2013-05-08 08:01:00,
2013-05-08 00:11:00,36.0,9.0,-100.00,NNW,340,2.0,4.0,32,0.00,,,0.00,,2013-05-08 08:11:00,
2013-05-08 00:21:00,35.0,9.0,-100.00,North,350,2.0,3.0,33,0.00,,,0.00,,2013-05-08 08:21:00,
2013-05-08 00:31:00,35.0,9.0,-100.00,North,350,2.0,3.0,33,0.00,,,0.00,,2013-05-08 08:31:00,
2013-05-08 00:42:00,35.0,9.0,-100.00,North,350,2.0,3.0,33,0.00,,,0.00,,2013-05-08 08:42:00,
2013-05-08 00:51:00,35.0,10.0,-100.00,NW,320,1.0,3.0,33,0.00,,,0.00,,2013-05-08 08:51:00,
2013-05-08 01:02:00,35.0,10.0,-100.00,NW,320,1.0,3.0,33,0.00,,,0.00,,2013-05-08 09:02:00,
2013-05-08 01:11:00,35.0,10.0,-100.00,NW,320,1.0,3.0,33,0.00,,,0.00,,2013-05-08 09:11:00,
2013-05-08 01:21:00,34.0,8.0,-100.00,SSE,160,3.0,4.0,33,0.00,,,0.00,,2013-05-08 09:21:00,
2013-05-08 01:52:00,34.0,9.0,-100.00,South,185,2.0,4.0,34,0.00,,,0.00,,2013-05-08 09:52:00,
2013-05-08 02:22:00,33.0,9.0,-100.00,SSW,210,3.0,6.0,35,0.00,,,0.00,,2013-05-08 10:22:00,
2013-05-08 02:33:00,33.0,9.0,-100.00,SSW,210,3.0,6.0,35,0.00,,,0.00,,2013-05-08 10:33:00,
2013-05-08 02:42:00,33.0,9.0,-100.00,SSW,210,3.0,6.0,35,0.00,,,0.00,,2013-05-08 10:42:00,
2013-05-08 02:52:00,33.0,9.0,-100.00,South,185,3.0,6.0,36,0.00,,,0.00,,2013-05-08 10:52:00,
2013-05-08 03:02:00,33.0,9.0,-100.00,South,185,3.0,6.0,36,0.00,,,0.00,,2013-05-08 11:02:00,
2013-05-08 03:11:00,33.0,9.0,-100.00,South,185,3.0,6.0,36,0.00,,,0.00,,2013-05-08 11:11:00,
2013-05-08 03:22:00,33.0,9.0,-100.00,SSW,210,4.0,6.0,37,0.00,,,0.00,,2013-05-08 11:22:00,
2013-05-08 03:32:00,33.0,9.0,-100.00,SSW,210,4.0,6.0,37,0.00,,,0.00,,2013-05-08 11:32:00,
2013-05-08 03:42:00,33.0,9.0,-100.00,SSW,210,4.0,6.0,37,0.00,,,0.00,,2013-05-08 11:42:00,
2013-05-08 03:52:00,32.0,9.0,-100.00,SSW,210,4.0,8.0,38,0.00,,,0.00,,2013-05-08 11:52:00,
2013-05-08 04:01:00,32.0,9.0,-100.00,SSW,210,4.0,8.0,38,0.00,,,0.00,,2013-05-08 12:01:00,
2013-05-08 04:11:00,32.0,9.0,-100.00,SSW,210,4.0,8.0,38,0.00,,,0.00,,2013-05-08 12:11:00,
2013-05-08 04:21:00,32.0,9.0,-100.00,SW,215,6.0,9.0,38,0.00,,,0.00,,2013-05-08 12:21:00,
2013-05-08 04:31:00,32.0,9.0,-100.00,SW,215,6.0,9.0,38,0.00,,,0.00,,2013-05-08 12:31:00,
2013-05-08 04:41:00,32.0,9.0,-100.00,SW,215,6.0,9.0,38,0.00,,,0.00,,2013-05-08 12:41:00,
2013-05-08 04:51:00,31.0,10.0,-100.00,SW,215,6.0,10.0,40,0.00,,,0.00,,2013-05-08 12:51:00,
2013-05-08 05:01:00,31.0,10.0,-100.00,SW,215,6.0,10.0,40,0.00,,,0.00,,2013-05-08 13:01:00,
2013-05-08 05:11:00,31.0,10.0,-100.00,SW,215,6.0,10.0,40,0.00,,,0.00,,2013-05-08 13:11:00,
2013-05-08 05:21:00,31.0,10.0,-100.00,SSW,205,4.0,7.0,42,0.00,,,0.00,,2013-05-08 13:21:00,
2013-05-08 05:32:00,31.0,10.0,-100.00,SSW,205,4.0,7.0,42,0.00,,,0.00,,2013-05-08 13:32:00,
2013-05-08 05:42:00,31.0,10.0,-100.00,SSW,205,4.0,7.0,42,0.00,,,0.00,,2013-05-08 13:42:00,
2013-05-08 05:52:00,30.0,10.0,-100.00,SSW,205,4.0,7.0,42,0.00,,,0.00,,2013-05-08 13:52:00,
2013-05-08 06:02:00,30.0,10.0,-100.00,SSW,205,4.0,7.0,42,0.00,,,0.00,,2013-05-08 14:02:00,
2013-05-08 06:11:00,30.0,10.0,-100.00,SSW,205,4.0,7.0,42,0.00,,,0.00,,2013-05-08 14:11:00,
2013-05-08 06:21:00,31.0,11.0,-100.00,SSW,210,5.0,9.0,42,0.00,,,0.00,,2013-05-08 14:21:00,
2013-05-08 06:31:00,31.0,11.0,-100.00,SSW,210,5.0,9.0,42,0.00,,,0.00,,2013-05-08 14:31:00,
2013-05-08 06:42:00,31.0,11.0,-100.00,SSW,210,5.0,9.0,42,0.00,,,0.00,,2013-05-08 14:42:00,
2013-05-08 06:50:00,31.0,11.0,-100.00,SSW,210,4.0,6.0,43,0.00,,,0.00,,2013-05-08 14:50:00,
2013-05-08 06:51:00,32.0,11.0,-100.00,SSW,200,4.0,8.0,42,0.00,,,0.00,,2013-05-08 14:51:00,
2013-05-08 07:01:00,32.0,11.0,-100.00,SSW,200,4.0,8.0,42,0.00,,,0.00,,2013-05-08 15:01:00,
2013-05-08 07:11:00,32.0,11.0,-100.00,SSW,200,4.0,8.0,42,0.00,,,0.00,,2013-05-08 15:11:00,
2013-05-08 07:21:00,31.0,11.0,-100.00,SSW,210,4.0,6.0,43,0.00,,,0.00,,2013-05-08 15:21:00,
2013-05-08 07:33:00,31.0,11.0,-100.00,SSW,210,4.0,6.0,43,0.00,,,0.00,,2013-05-08 15:33:00,
2013-05-08 07:42:00,31.0,11.0,-100.00,SSW,210,4.0,6.0,43,0.00,,,0.00,,2013-05-08 15:42:00,
2013-05-08 08:23:00,33.0,12.0,-100.00,SW,225,5.0,9.0,42,0.00,,,0.00,,2013-05-08 16:23:00,
2013-05-08 08:33:00,33.0,12.0,-100.00,SW,225,5.0,9.0,42,0.00,,,0.00,,2013-05-08 16:33:00,
2013-05-08 08:42:00,33.0,12.0,-100.00,SW,225,5.0,9.0,42,0.00,,,0.00,,2013-05-08 16:42:00,
2013-05-08 08:52:00,35.0,13.0,-100.00,SSW,205,2.0,7.0,40,0.00,,,0.00,,2013-05-08 16:52:00,
2013-05-08 09:02:00,35.0,13.0,-100.00,SSW,205,2.0,7.0,40,0.00,,,0.00,,2013-05-08 17:02:00,
2013-05-08 09:11:00,35.0,13.0,-100.00,SSW,205,2.0,7.0,40,0.00,,,0.00,,2013-05-08 17:11:00,
2013-05-08 09:22:00,37.0,14.0,-100.00,SW,220,2.0,6.0,39,0.00,,,0.00,,2013-05-08 17:22:00,
2013-05-08 09:31:00,37.0,14.0,-100.00,SW,220,2.0,6.0,39,0.00,,,0.00,,2013-05-08 17:31:00,
2013-05-08 09:41:00,37.0,14.0,-100.00,SW,220,2.0,6.0,39,0.00,,,0.00,,2013-05-08 17:41:00,
2013-05-08 09:52:00,39.0,15.0,-100.00,SSW,195,2.0,6.0,37,0.00,,,0.00,,2013-05-08 17:52:00,
2013-05-08 10:02:00,39.0,15.0,-100.00,SSW,195,2.0,6.0,37,0.00,,,0.00,,2013-05-08 18:02:00,
2013-05-08 10:11:00,39.0,15.0,-100.00,SSW,195,2.0,6.0,37,0.00,,,0.00,,2013-05-08 18:11:00,
2013-05-08 10:21:00,41.0,16.0,-100.00,SW,220,1.0,4.0,34,0.00,,,0.00,,2013-05-08 18:21:00,
2013-05-08 10:31:00,41.0,16.0,-100.00,SW,220,1.0,4.0,34,0.00,,,0.00,,2013-05-08 18:31:00,
2013-05-08 10:42:00,41.0,16.0,-100.00,SW,220,1.0,4.0,34,0.00,,,0.00,,2013-05-08 18:42:00,
2013-05-08 10:51:00,44.0,17.0,-100.00,SW,220,4.0,7.0,33,0.00,,,0.00,,2013-05-08 18:51:00,
2013-05-08 11:01:00,44.0,17.0,-100.00,SW,220,4.0,7.0,33,0.00,,,0.00,,2013-05-08 19:01:00,
2013-05-08 11:11:00,44.0,17.0,-100.00,SW,220,4.0,7.0,33,0.00,,,0.00,,2013-05-08 19:11:00,
2013-05-08 11:21:00,44.0,17.0,-100.00,South,175,2.0,7.0,32,0.00,,,0.00,,2013-05-08 19:21:00,
2013-05-08 11:32:00,44.0,17.0,-100.00,South,175,2.0,7.0,32,0.00,,,0.00,,2013-05-08 19:32:00,
2013-05-08 11:42:00,44.0,17.0,-100.00,South,175,2.0,7.0,32,0.00,,,0.00,,2013-05-08 19:42:00,
2013-05-08 11:52:00,45.0,16.0,-100.00,SSE,160,3.0,7.0,31,0.00,,,0.00,,2013-05-08 19:52:00,
2013-05-08 12:01:00,45.0,16.0,-100.00,SSE,160,3.0,7.0,31,0.00,,,0.00,,2013-05-08 20:01:00,
2013-05-08 12:11:00,45.0,16.0,-100.00,SSE,160,3.0,7.0,31,0.00,,,0.00,,2013-05-08 20:11:00,
2013-05-08 12:22:00,45.0,16.0,-100.00,WNW,285,1.0,9.0,30,0.00,,,0.00,,2013-05-08 20:22:00,
2013-05-08 12:32:00,45.0,16.0,-100.00,WNW,285,1.0,9.0,30,0.00,,,0.00,,2013-05-08 20:32:00,
2013-05-08 12:42:00,45.0,16.0,-100.00,WNW,285,1.0,9.0,30,0.00,,,0.00,,2013-05-08 20:42:00,
2013-05-08 12:51:00,45.0,15.0,-100.00,West,275,6.0,9.0,29,0.00,,,0.00,,2013-05-08 20:51:00,
2013-05-08 13:01:00,45.0,15.0,-100.00,West,275,6.0,9.0,29,0.00,,,0.00,,2013-05-08 21:01:00,
2013-05-08 13:11:00,45.0,15.0,-100.00,West,275,6.0,9.0,29,0.00,,,0.00,,2013-05-08 21:11:00,
2013-05-08 13:21:00,44.0,14.0,-100.00,WNW,285,6.0,14.0,29,0.00,,,0.00,,2013-05-08 21:21:00,
2013-05-08 13:33:00,44.0,14.0,-100.00,WNW,285,6.0,14.0,29,0.00,,,0.00,,2013-05-08 21:33:00,
2013-05-08 13:43:00,44.0,14.0,-100.00,WNW,285,6.0,14.0,29,0.00,,,0.00,,2013-05-08 21:43:00,
2013-05-08 13:52:00,45.0,15.0,-100.00,West,280,5.0,10.0,28,0.00,,,0.00,,2013-05-08 21:52:00,
2013-05-08 14:02:00,45.0,15.0,-100.00,West,280,5.0,10.0,28,0.00,,,0.00,,2013-05-08 22:02:00,
2013-05-08 14:12:00,45.0,15.0,-100.00,West,280,5.0,10.0,28,0.00,,,0.00,,2013-05-08 22:12:00,
2013-05-08 14:22:00,45.0,14.0,-100.00,North,0,6.0,10.0,28,0.00,,,0.00,,2013-05-08 22:22:00,
2013-05-08 14:33:00,45.0,14.0,-100.00,North,0,6.0,10.0,28,0.00,,,0.00,,2013-05-08 22:33:00,
2013-05-08 14:42:00,45.0,14.0,-100.00,North,0,6.0,10.0,28,0.00,,,0.00,,2013-05-08 22:42:00,
2013-05-08 14:52:00,45.0,14.0,-100.00,West,275,7.0,11.0,27,0.00,,,0.00,,2013-05-08 22:52:00,
2013-05-08 15:01:00,45.0,14.0,-100.00,West,275,7.0,11.0,27,0.00,,,0.00,,2013-05-08 23:01:00,
2013-05-08 15:11:00,45.0,14.0,-100.00,West,275,7.0,11.0,27,0.00,,,0.00,,2013-05-08 23:11:00,
2013-05-08 15:22:00,46.0,14.0,-100.00,NW,325,7.0,15.0,27,0.00,,,0.00,,2013-05-08 23:22:00,
2013-05-08 15:32:00,46.0,14.0,-100.00,NW,325,7.0,15.0,27,0.00,,,0.00,,2013-05-08 23:32:00,
2013-05-08 15:42:00,46.0,14.0,-100.00,NW,325,7.0,15.0,27,0.00,,,0.00,,2013-05-08 23:42:00,
2013-05-08 15:52:00,47.0,15.0,-100.00,WNW,295,5.0,14.0,27,0.00,,,0.00,,2013-05-08 23:52:00,
2013-05-08 16:02:00,47.0,15.0,-100.00,WNW,295,5.0,14.0,27,0.00,,,0.00,,2013-05-09 00:02:00,
2013-05-08 16:11:00,47.0,15.0,-100.00,WNW,295,5.0,14.0,27,0.00,,,0.00,,2013-05-09 00:11:00,
2013-05-08 16:21:00,45.0,14.0,-100.00,West,265,2.0,15.0,27,0.00,,,0.00,,2013-05-09 00:21:00,
2013-05-08 16:32:00,45.0,14.0,-100.00,West,265,2.0,15.0,27,0.00,,,0.00,,2013-05-09 00:32:00,
2013-05-08 16:42:00,45.0,14.0,-100.00,West,265,2.0,15.0,27,0.00,,,0.00,,2013-05-09 00:42:00,
2013-05-08 16:51:00,47.0,14.0,-100.00,WNW,285,6.0,13.0,26,0.00,,,0.00,,2013-05-09 00:51:00,
2013-05-08 17:01:00,47.0,14.0,-100.00,WNW,285,6.0,13.0,26,0.00,,,0.00,,2013-05-09 01:01:00,
2013-05-08 17:11:00,47.0,14.0,-100.00,WNW,285,6.0,13.0,26,0.00,,,0.00,,2013-05-09 01:11:00,
2013-05-08 17:22:00,46.0,14.0,-100.00,West,280,6.0,14.0,26,0.00,,,0.00,,2013-05-09 01:22:00,
2013-05-08 17:32:00,46.0,14.0,-100.00,West,280,6.0,14.0,26,0.00,,,0.00,,2013-05-09 01:32:00,
2013-05-08 17:42:00,46.0,14.0,-100.00,West,280,6.0,14.0,26,0.00,,,0.00,,2013-05-09 01:42:00,
2013-05-08 17:50:00,45.0,14.0,-100.00,WNW,285,7.0,11.0,27,0.00,,,0.00,,2013-05-09 01:50:00,
2013-05-08 17:52:00,45.0,14.0,-100.00,NW,320,7.0,14.0,27,0.00,,,0.00,,2013-05-09 01:52:00,
2013-05-08 18:02:00,45.0,14.0,-100.00,NW,320,7.0,14.0,27,0.00,,,0.00,,2013-05-09 02:02:00,
2013-05-08 18:11:00,45.0,14.0,-100.00,NW,320,7.0,14.0,27,0.00,,,0.00,,2013-05-09 02:11:00,
2013-05-08 18:21:00,45.0,14.0,-100.00,WNW,285,7.0,11.0,27,0.00,,,0.00,,2013-05-09 02:21:00,
2013-05-08 18:32:00,45.0,14.0,-100.00,WNW,285,7.0,11.0,27,0.00,,,0.00,,2013-05-09 02:32:00,
2013-05-08 18:41:00,45.0,14.0,-100.00,WNW,285,7.0,11.0,27,0.00,,,0.00,,2013-05-09 02:41:00,
2013-05-08 19:01:00,45.0,14.0,-100.00,NNW,335,4.0,15.0,27,0.00,,,0.00,,2013-05-09 03:01:00,
2013-05-08 19:11:00,45.0,14.0,-100.00,NNW,335,4.0,15.0,27,0.00,,,0.00,,2013-05-09 03:11:00,
2013-05-08 19:21:00,46.0,15.0,-100.00,NNW,345,4.0,12.0,27,0.00,,,0.00,,2013-05-09 03:21:00,
2013-05-08 19:33:00,46.0,15.0,-100.00,NNW,345,4.0,12.0,27,0.00,,,0.00,,2013-05-09 03:33:00,
2013-05-08 19:43:00,46.0,15.0,-100.00,NNW,345,4.0,12.0,27,0.00,,,0.00,,2013-05-09 03:43:00,
2013-05-08 19:52:00,46.0,15.0,-100.00,NW,315,7.0,12.0,28,0.00,,,0.00,,2013-05-09 03:52:00,
2013-05-08 20:03:00,46.0,15.0,-100.00,NW,315,7.0,12.0,28,0.00,,,0.00,,2013-05-09 04:03:00,
2013-05-08 20:12:00,46.0,15.0,-100.00,NW,315,7.0,12.0,28,0.00,,,0.00,,2013-05-09 04:12:00,
2013-05-08 20:23:00,45.0,14.0,-100.00,NW,315,4.0,10.0,28,0.00,,,0.00,,2013-05-09 04:23:00,
2013-05-08 20:32:00,45.0,14.0,-100.00,NW,315,4.0,10.0,28,0.00,,,0.00,,2013-05-09 04:32:00,
2013-05-08 20:43:00,45.0,14.0,-100.00,NW,315,4.0,10.0,28,0.00,,,0.00,,2013-05-09 04:43:00,
2013-05-08 20:52:00,45.0,15.0,-100.00,WNW,295,4.0,7.0,29,0.00,,,0.00,,2013-05-09 04:52:00,
2013-05-08 21:02:00,45.0,15.0,-100.00,WNW,295,4.0,7.0,29,0.00,,,0.00,,2013-05-09 05:02:00,
2013-05-08 21:12:00,45.0,15.0,-100.00,WNW,295,4.0,7.0,29,0.00,,,0.00,,2013-05-09 05:12:00,
2013-05-08 21:22:00,44.0,15.0,-100.00,NW,325,2.0,6.0,29,0.00,,,0.00,,2013-05-09 05:22:00,
2013-05-08 21:32:00,44.0,15.0,-100.00,NW,325,2.0,6.0,29,0.00,,,0.00,,2013-05-09 05:32:00,
2013-05-08 21:42:00,44.0,15.0,-100.00,NW,325,2.0,6.0,29,0.00,,,0.00,,2013-05-09 05:42:00,
2013-05-08 21:51:00,43.0,14.0,-100.00,North,0,3.0,6.0,30,0.00,,,0.00,,2013-05-09 05:51:00,
2013-05-08 22:01:00,43.0,14.0,-100.00,North,0,3.0,6.0,30,0.00,,,0.00,,2013-05-09 06:01:00,
2013-05-08 22:11:00,43.0,14.0,-100.00,North,0,3.0,6.0,30,0.00,,,0.00,,2013-05-09 06:11:00,
2013-05-08 22:21:00,42.0,14.0,-100.00,NNW,335,2.0,6.0,31,0.00,,,0.00,,2013-05-09 06:21:00,
2013-05-08 22:32:00,42.0,14.0,-100.00,NNW,335,2.0,6.0,31,0.00,,,0.00,,2013-05-09 06:32:00,
2013-05-08 22:42:00,42.0,14.0,-100.00,NNW,335,2.0,6.0,31,0.00,,,0.00,,2013-05-09 06:42:00,
2013-05-08 22:52:00,41.0,13.0,-100.00,NW,315,1.0,4.0,32,0.00,,,0.00,,2013-05-09 06:52:00,
2013-05-08 23:01:00,41.0,13.0,-100.00,NW,315,1.0,4.0,32,0.00,,,0.00,,2013-05-09 07:01:00,
2013-05-08 23:12:00,41.0,13.0,-100.00,NW,315,1.0,4.0,32,0.00,,,0.00,,2013-05-09 07:12:00,
2013-05-08 23:21:00,39.0,13.0,-100.00,NW,315,2.0,3.0,33,0.00,,,0.00,,2013-05-09 07:21:00,
2013-05-08 23:32:00,39.0,13.0,-100.00,NW,315,2.0,3.0,33,0.00,,,0.00,,2013-05-09 07:32:00,
2013-05-08 23:42:00,39.0,13.0,-100.00,NW,315,2.0,3.0,33,0.00,,,0.00,,2013-05-09 07:42:00,
2013-05-08 23:52:00,38.0,13.0,-100.00,North,0,1.0,4.0,34,0.00,,,0.00,,2013-05-09 07:52:00,